CAPE
0 0 0 0 0 0 0 0 0 0 0 0 0 0 0 0 0 0 0 0 0 0 0 0 0 0 0 0 0 0 0 0 0 0 0 0 0 0 0 0 0 0 0
0 0 0 0 0 0 0 0 0 0 0 0 0 0 0 0 0 0 0 0 0 0 0 0 0 0 0 0 0 0 0 0 0 0 0 0 0 0 0 0 0 0 0
0 0 0 0 0 0 0 0 0 0 0 0 0 0 0 0 0 0 0 0 0 0 0 0 0 0 0 0 0 0 0 0 0 0 0 0 0 0 0 0 0 0 0
0 0 0 0 0 0 0 0 0 0 0 0 0 0 0 0 0 0 0 0 0 0 0 0 0 0 0 0 0 0 0 0 0 0 0 0 0 0 0 0 0 0 0
0 0 0 0 0 0 0 0 0 0 0 0 0 0 0 0 0 0 0 0 0 0 0 0 0 0 0 0 0 0 0 0 0 0 0 0 0 0 0 0 0 0 0
0 0 0 0 0 0 0 0 0 0 0 0 0 0 0 0 0 0 0 0 0 0 0 0 0 0 0 0 0 1 0 0 0 0 0 0 0 0 0 0 0 0 0
0 0 0 0 0 0 0 0 0 0 0 0 0 0 0 0 0 0 0 0 0 0 0 0 0 0 0 0 0 0 0 1 3 1 0 0 0 0 0 0 0 0 0
0 0 0 0 0 0 0 0 0 0 0 0 0 0 0 0 0 0 0 0 0 0 0 0 0 0 0 0 0 0 1 1 0 0 6 0 0 0 0 0 0 0 0
0 0 0 0 0 0 0 0 0 0 0 0 0 0 0 0 0 0 0 0 1 1 0 1 1 0 0 0 0 0 0 0 3 10 6 2 5 2 0 0 0 0 0
0 0 0 0 0 0 0 0 0 0 0 0 0 0 0 0 0 0 0 0 0 0 0 0 0 0 0 1 0 0 0 0 5 7 4 2 6 10 12 4 0 0 0
0 0 0 0 0 0 0 0 0 0 0 0 0 0 0 0 0 0 0 0 0 0 0 0 1 0 0 0 3 3 2 3 3 7 8 4 1 3 3 8 3 0 0
0 0 0 0 0 0 0 0 0 0 0 0 0 0 0 0 0 0 0 0 2 0 0 0 0 0 0 2 3 6 0 0 6 10 20 8 8 2 0 1 0 0 0
0 0 0 0 0 0 0 0 0 0 0 0 0 0 0 0 0 0 0 0 2 0 0 0 3 0 0 0 0 0 0 0 0 2 16 16 14 5 0 0 0 0 0
0 0 0 0 0 0 0 0 0 0 0 0 0 0 0 0 0 0 0 0 0 0 0 0 0 0 0 0 0 0 0 0 4 1 3 30 27 11 0 0 0 0 0
0 0 0 0 0 0 0 0 0 0 0 0 0 0 0 0 0 3 9 3 6 3 12 9 5 0 0 0 0 0 0 0 0 0 3 17 16 7 0 0 0 0 0
0 0 0 0 0 0 0 0 0 0 0 0 2 2 0 3 4 11 14 12 12 19 6 2 3 1 0 0 0 0 0 0 0 0 0 20 24 1 0 0 0 0 0
0 0 0 0 0 0 0 0 0 0 0 0 0 0 0 3 2 4 7 8 1 0 0 0 0 1 1 0 0 0 0 0 0 1 0 0 1 1 0 0 0 0 0
0 0 0 0 0 0 0 0 0 0 0 0 0 0 0 0 0 4 0 0 0 0 0 0 0 0 0 0 0 0 0 0 0 0 0 1 2 2 0 0 0 0 0
0 0 0 0 0 0 0 0 0 0 0 0 0 0 0 0 0 0 0 0 0 0 0 0 0 0 0 0 0 0 0 0 0 0 0 9 4 0 0 0 0 0 0
0 0 0 0 0 0 0 0 0 0 0 0 0 0 0 0 0 0 0 0 0 0 0 0 0 0 0 0 0 0 0 0 0 0 0 0 0 0 0 0 0 0 0
0 0 0 0 0 0 0 0 0 0 0 0 0 0 0 0 0 0 0 0 0 0 0 0 0 0 0 0 0 0 0 0 0 0 0 0 0 0 0 0 0 0 0
0 0 0 0 0 0 0 0 0 0 0 0 0 0 0 0 0 0 0 0 0 0 0 0 0 0 0 0 0 0 0 0 0 0 0 0 0 0 0 0 0 0 0
0 0 0 0 0 0 0 0 0 0 0 0 0 0 0 0 0 0 0 0 0 0 0 0 0 0 0 0 0 0 0 0 0 0 0 0 0 0 0 0 0 0 0
0 0 0 0 0 0 0 0 0 0 0 0 0 0 0 0 0 0 0 0 0 0 0 0 0 0 0 0 0 0 0 0 0 0 0 0 0 0 0 0 0 0 0
0 0 0 0 0 0 0 0 0 0 0 0 0 0 0 0 0 0 0 0 0 0 0 0 0 0 0 0 0 0 0 0 0 0 0 0 0 0 0 0 0 0 0
0 0 0 0 0 0 0 0 0 0 0 0 0 0 0 0 0 0 0 0 0 0 0 0 0 0 0 0 0 0 0 0 0 0 0 0 0 0 0 0 0 0 0
CIN
0 0 0 0 0 0 0 0 0 0 0 0 0 0 0 0 0 0 0 0 0 0 0 0 0 0 0 0 0 0 0 0 0 0 0 0 0 0 0 0 0 0 0
0 0 0 0 0 0 0 0 0 0 0 0 0 0 0 0 0 0 0 0 0 0 0 0 0 0 0 0 0 0 0 0 0 0 0 0 0 0 0 0 0 0 0
0 0 0 0 0 0 0 0 0 0 0 0 0 0 0 0 0 0 0 0 0 0 0 0 0 0 0 0 0 0 0 0 0 0 0 0 0 0 0 0 0 0 0
0 0 0 0 0 0 0 0 0 0 0 0 0 0 0 0 0 0 0 0 0 0 0 0 0 0 0 0 0 0 0 0 0 0 0 0 0 0 0 0 0 0 0
0 0 0 0 0 0 0 0 0 0 0 0 0 0 0 0 0 0 0 0 0 0 0 0 0 0 0 0 0 0 0 0 0 0 0 0 0 0 0 0 0 0 0
0 0 0 0 0 0 0 0 0 0 0 0 0 0 0 0 0 0 0 0 0 0 0 0 0 0 0 0 0 0 0 0 0 0 0 0 0 0 0 0 0 0 0
0 0 0 0 0 0 0 0 0 0 0 0 0 0 0 0 0 0 0 0 0 0 0 0 0 0 0 0 0 0 -1 0 0 0 0 0 0 0 0 0 0 0 0
0 0 0 0 0 0 0 0 0 0 0 0 0 0 0 0 0 0 0 0 0 0 0 0 0 0 0 0 0 0 0 -1 0 0 -1 0 0 0 0 0 0 0 0
0 0 0 0 0 0 0 0 0 0 0 0 0 0 0 0 0 0 0 0 0 0 0 0 0 0 0 0 0 0 0 0 0 0 0 0 0 0 0 0 0 0 0
0 0 0 0 0 0 0 0 0 0 0 0 0 0 0 0 0 0 -1 0 0 0 -1 0 0 -2 0 -4 0 -1 0 0 -1 0 -1 -1 0 0 0 -2 0 0 0
0 0 0 0 0 0 0 0 0 0 0 0 0 0 0 0 0 0 0 0 0 0 0 0 -1 0 0 0 -5 -3 -1 -2 -3 -2 -1 -2 -2 -1 0 0 -2 0 0
0 0 0 0 0 0 0 0 0 0 0 0 0 0 0 0 0 0 0 -2 -3 -2 0 0 0 0 0 -3 -6 -3 0 -3 -1 -2 0 -2 -1 -1 -2 -1 -4 0 0
0 0 0 0 0 0 0 0 0 0 0 0 0 0 0 0 0 0 0 -1 -2 -2 0 0 -3 -6 -1 -1 -1 -1 -1 0 0 0 0 0 -2 -4 -2 0 -1 0 0
0 0 0 0 0 0 0 0 0 0 0 0 0 0 0 0 0 0 0 0 0 0 0 0 0 0 0 0 0 0 0 0 -3 -1 0 -1 -2 -3 -1 0 0 -1 0
0 0 0 0 0 0 0 0 0 0 0 0 0 0 0 0 0 -1 -4 -6 -6 -1 -4 -3 -3 0 0 0 0 0 0 0 0 0 0 -1 -1 -12 0 0 -2 0 0
0 0 0 0 0 0 0 0 0 0 0 0 -1 -3 0 -2 -2 -3 -2 -2 -4 -3 -3 -1 -2 -3 -2 0 0 0 0 0 0 0 0 -1 -7 -2 -1 0 0 0 0
0 0 0 0 0 0 0 0 0 0 0 0 -1 -1 -1 -1 -1 -2 -2 -3 -3 0 0 0 0 0 -1 0 0 0 0 0 0 0 0 0 -1 -3 0 0 0 0 0
0 0 0 0 0 0 0 0 0 0 0 0 0 0 0 0 -1 -1 -2 0 0 0 0 0 0 0 0 0 0 0 0 0 0 0 0 0 0 -2 0 0 0 0 0
0 0 0 0 0 0 0 0 0 0 0 0 0 0 0 0 0 0 0 0 0 0 0 0 0 0 0 0 0 0 0 0 0 0 -1 -2 -6 0 0 0 0 0 0
0 0 0 0 0 0 0 0 0 0 0 0 0 0 0 0 0 0 0 0 0 0 0 0 0 0 0 0 0 0 0 0 0 0 0 0 0 0 0 0 0 0 0
0 0 0 0 0 0 0 0 0 0 0 0 0 0 0 0 0 0 0 0 0 0 0 0 0 0 0 0 0 0 0 0 0 0 0 0 0 0 0 0 0 0 0
0 0 0 0 0 0 0 0 0 0 0 0 0 0 0 0 0 0 0 0 0 0 0 0 0 0 0 0 0 0 0 0 0 0 0 0 0 0 0 0 0 0 0
0 0 0 0 0 0 0 0 0 0 0 0 0 0 0 0 0 0 0 0 0 0 0 0 0 0 0 0 0 0 0 0 0 0 0 0 0 0 0 0 0 0 0
0 0 0 0 0 0 0 0 0 0 0 0 0 0 0 0 0 0 0 0 0 0 0 0 0 0 0 0 0 0 0 0 0 0 0 0 0 0 0 0 0 0 0
0 0 0 0 0 0 0 0 0 0 0 0 0 0 0 0 0 0 0 0 0 0 0 0 0 0 0 0 0 0 0 0 0 0 0 0 0 0 0 0 0 0 0
0 0 0 0 0 0 0 0 0 0 0 0 0 0 0 0 0 0 0 0 0 0 0 0 0 0 0 0 0 0 0 0 0 0 0 0 0 0 0 0 0 0 0
Wind_Speed
27 29 32 33 36 36 37 38 40 41 42 44 44 45 46 47 47 46 47 47 48 48 46 46 46 45 45 46 46 46 47 47 58 57 51 47 46 44 41 39 39 37 37
29 31 32 34 36 38 39 40 42 44 44 46 47 49 49 49 50 51 52 51 52 53 52 51 50 48 49 47 47 48 49 48 53 60 52 50 48 45 45 44 42 40 39
29 31 33 36 38 40 41 42 44 46 47 48 49 52 54 54 55 54 54 56 55 55 55 55 55 53 54 51 50 50 48 48 50 56 58 49 48 44 44 45 44 44 41
30 32 35 38 40 43 45 46 47 47 50 51 52 54 55 57 57 58 58 59 59 59 58 57 57 57 58 56 55 54 51 52 52 55 57 55 51 46 45 47 47 44 44
32 34 36 38 40 43 45 46 47 49 51 53 56 57 57 58 57 58 59 61 62 64 63 62 60 59 58 57 58 58 55 55 54 55 57 55 55 51 51 46 50 47 47
32 35 37 40 42 44 44 46 48 51 53 54 56 58 60 59 59 60 61 62 63 64 66 65 63 64 64 65 63 61 60 59 59 57 58 58 57 53 50 50 49 49 53
32 35 38 40 42 42 45 48 51 54 55 57 58 58 60 59 60 61 60 60 62 63 65 66 67 64 64 64 65 65 65 63 62 60 61 60 58 52 47 49 49 50 53
33 35 37 39 41 44 46 49 51 52 55 56 58 57 58 57 59 60 61 60 60 61 62 63 65 67 66 66 68 69 68 65 64 62 62 63 56 52 50 51 49 50 49
35 36 36 39 42 44 47 48 50 53 54 55 53 54 55 56 57 57 56 55 55 57 56 56 58 61 63 65 67 70 71 73 65 64 64 64 60 56 51 50 53 51 54
34 35 38 39 42 44 46 49 50 50 52 51 52 51 53 55 52 51 48 46 48 48 48 49 50 54 59 60 61 63 70 73 66 66 64 65 64 61 57 52 52 57 57
34 36 37 39 41 43 46 47 49 50 49 48 49 49 50 46 44 45 44 42 43 48 49 50 50 54 59 60 61 61 65 64 65 67 66 64 62 60 58 56 53 53 57
34 36 38 39 39 42 45 47 47 47 47 47 48 49 46 41 40 41 42 42 42 45 48 48 52 57 60 60 59 59 64 64 59 63 65 64 63 61 58 55 55 54 53
34 36 38 38 39 40 44 47 46 43 43 46 48 50 48 41 37 37 39 42 41 43 43 44 48 55 60 60 61 63 62 61 61 61 63 64 60 58 55 54 53 53 54
36 37 38 39 41 41 41 42 40 41 43 45 45 42 43 41 40 39 37 38 38 41 41 41 42 47 50 51 54 53 54 56 56 60 61 57 55 53 55 53 53 51 52
34 36 37 39 40 43 40 40 39 39 40 46 45 47 49 47 41 39 43 43 42 43 44 44 48 45 42 41 45 45 47 50 53 55 56 54 52 48 50 49 50 49 51
34 36 37 39 41 41 42 43 40 41 42 41 41 45 41 40 45 46 48 45 40 43 43 41 46 45 44 41 42 43 42 43 43 47 45 47 44 47 47 45 47 49 52
33 36 37 39 40 41 42 45 48 47 42 41 39 42 41 42 47 45 43 44 43 40 36 35 39 42 41 39 39 38 40 37 39 41 36 36 41 44 41 42 44 46 48
33 35 37 37 38 39 42 44 44 45 47 47 43 43 42 43 44 44 45 41 38 35 33 33 36 41 44 43 30 25 27 33 34 37 36 36 37 37 38 41 42 43 44
33 35 36 37 37 38 42 41 41 42 42 43 44 42 40 43 43 42 40 35 35 35 35 34 35 43 43 39 28 24 23 24 30 33 32 32 30 28 33 37 39 40 40
33 34 35 37 38 40 39 39 40 40 40 40 41 42 43 43 44 42 39 36 34 34 34 33 35 41 40 38 31 25 24 26 28 30 30 30 30 28 30 31 33 35 37
33 34 35 37 37 38 37 37 37 38 38 38 38 38 42 41 40 40 40 38 36 37 36 32 33 38 39 37 35 32 28 27 28 27 26 23 22 24 25 26 28 31 32
31 32 35 35 36 35 35 35 35 35 35 35 35 34 38 36 37 38 38 38 37 38 36 34 28 32 37 36 34 32 30 28 27 24 21 19 18 19 19 20 22 24 26
29 31 31 33 32 32 32 33 33 33 33 32 31 33 34 35 35 35 38 38 38 39 38 37 37 31 33 35 33 31 29 28 26 23 21 19 17 16 15 15 16 19 21
26 27 31 32 30 30 31 31 31 30 30 28 29 30 31 32 33 34 36 37 38 38 37 38 37 38 33 35 33 31 29 27 25 22 19 17 15 14 14 14 14 15 17
26 30 31 30 30 30 31 30 29 28 26 26 27 28 28 29 30 32 34 36 36 38 36 37 37 38 37 36 34 33 30 27 24 21 19 16 14 12 12 12 12 12 13
27 30 30 29 29 29 29 28 26 24 24 23 23 25 25 26 27 29 31 36 36 37 37 36 35 35 35 34 33 32 31 28 24 21 18 15 13 11 11 9 8 9 10
Wind_Direction
324 325 325 324 324 324 323 321 318 318 318 316 314 312 312 311 310 309 307 305 303 301 300 298 296 295 291 289 287 285 283 281 277 278 278 276 274 271 271 269 267 265 265
321 322 322 322 322 321 320 319 317 315 316 315 313 311 310 309 308 306 303 303 300 298 296 295 294 294 291 290 289 286 283 281 279 278 279 276 273 271 269 267 266 265 263
320 320 319 318 318 318 317 317 316 315 315 314 312 309 307 306 305 304 303 301 298 296 294 293 292 291 289 289 288 287 286 284 280 277 277 278 275 273 269 268 265 265 264
317 318 318 318 318 318 317 315 315 315 312 312 311 308 307 305 303 302 300 298 296 294 293 291 289 288 286 286 285 284 284 282 280 278 276 275 275 273 269 266 265 263 263
315 316 317 318 318 318 318 317 316 316 314 313 311 309 307 305 304 302 300 297 294 292 290 288 288 286 285 284 283 281 281 279 279 277 276 275 272 270 268 267 264 264 263
314 316 318 318 318 318 318 318 317 316 315 314 312 310 307 306 305 302 300 297 294 292 289 287 286 285 283 281 280 279 277 276 275 274 274 273 272 271 270 267 265 263 263
315 317 318 319 319 319 319 318 317 316 315 314 313 311 308 307 305 303 301 298 295 292 290 288 286 284 283 282 280 278 275 273 271 271 271 270 271 271 269 267 265 262 262
316 317 319 320 320 320 320 319 319 319 318 316 314 313 310 309 307 304 302 299 295 293 292 289 287 285 284 282 280 277 275 273 270 269 268 269 269 271 269 266 265 265 264
316 318 321 321 321 321 321 321 321 320 319 318 317 316 314 312 311 307 305 302 299 296 295 293 291 288 286 284 280 277 274 271 271 269 268 267 267 267 266 266 262 261 261
317 319 321 322 322 322 322 322 322 322 320 320 319 319 317 314 313 311 309 307 304 303 301 299 297 294 291 287 284 280 275 271 272 269 267 266 265 264 263 259 259 258 259
319 320 322 323 323 324 324 325 324 324 323 323 323 323 321 319 317 313 311 310 309 306 304 303 302 298 294 290 286 282 278 277 272 269 267 264 262 261 261 258 256 255 257
320 321 323 324 325 326 326 326 327 326 325 325 326 325 326 322 319 316 315 313 313 310 309 308 305 299 294 291 288 285 279 276 274 270 265 261 259 259 259 258 257 255 256
321 322 324 325 327 328 327 328 328 328 328 328 326 324 325 325 323 320 318 316 316 314 312 310 308 303 297 293 288 283 281 276 273 270 266 261 259 258 258 258 258 257 256
320 322 324 325 326 328 330 331 330 329 329 328 329 331 332 329 326 325 324 321 319 318 316 312 308 305 302 297 292 287 281 276 270 270 267 265 260 257 255 255 256 256 255
321 323 325 326 328 328 331 332 329 328 330 327 326 326 325 327 330 329 326 326 325 323 322 320 315 311 306 302 297 291 284 277 271 270 265 262 260 257 254 252 253 254 254
321 324 326 327 328 330 331 327 328 328 330 332 331 327 332 332 329 329 327 329 330 330 329 327 321 315 311 308 302 294 286 277 273 274 264 260 260 255 252 252 252 252 252
321 323 325 327 328 330 329 320 310 318 332 335 337 337 337 336 331 333 334 333 335 339 340 339 332 323 319 314 306 296 283 277 274 273 272 265 260 257 254 253 252 251 251
322 323 325 327 328 329 324 313 315 318 321 323 338 340 341 341 338 337 336 339 343 349 349 349 345 331 310 295 318 313 296 284 281 277 275 271 266 261 256 254 252 251 251
321 323 325 326 328 326 314 313 318 322 327 331 336 344 347 344 343 344 344 347 346 347 350 352 350 331 317 309 324 316 304 298 292 287 283 280 274 264 262 258 255 251 250
320 322 324 325 325 318 311 314 318 325 330 335 339 343 346 348 348 349 350 349 348 349 350 353 351 337 325 325 324 323 309 301 300 297 293 287 280 274 267 261 255 252 250
320 322 322 322 319 307 309 315 321 326 332 338 344 349 347 352 355 355 354 353 351 347 349 356 356 343 331 326 325 324 315 309 306 304 302 297 286 277 271 264 258 254 251
320 321 319 317 307 303 310 317 323 330 336 341 348 355 354 359 1 1 0 358 355 347 349 356 6 360 340 332 328 326 324 323 318 315 314 308 297 285 276 268 261 256 251
320 320 317 307 299 306 313 320 327 333 340 348 355 357 359 2 4 6 4 1 358 343 348 354 356 9 4 342 338 334 330 327 325 322 318 312 305 295 286 275 265 257 252
320 317 305 291 298 307 316 322 330 338 346 355 359 1 3 5 8 8 7 7 2 342 343 354 358 350 11 359 344 340 336 333 330 326 324 319 312 303 291 283 272 263 256
314 304 285 287 295 305 313 324 334 343 354 359 2 4 5 9 10 10 9 7 9 353 341 345 355 354 345 346 355 352 350 345 342 337 332 327 322 312 302 290 278 269 260
305 281 278 285 294 308 317 327 339 351 356 2 5 5 8 10 9 9 9 0 3 2 345 347 344 343 345 349 345 351 4 10 4 355 350 340 330 319 313 304 293 277 266